Kecskemet, Hungary

9:18 AM CEST on July 27, 2016 (GMT +0200)
Kecskemet

Weather History for LHKE - August, 2013

Change the Weather History Date:

Saturday, August 17, 2013

  Actual Average (LHBP) Record (LHBP)
Temperature  
Mean Temperature 68 °F -  
Max Temperature 86 °F 80 °F 89 °F (1998)
Min Temperature 51 °F 58 °F 48 °F (2004)
Cooling Degree Days 4    
Growing Degree Days 18 (Base 50)    
Moisture  
Dew Point 44 °F    
Average Humidity 46    
Maximum Humidity 82    
Minimum Humidity 20    
Precipitation  
Precipitation 0.00 in - - ()
Sea Level Pressure  
Sea Level Pressure 30.08 in    
Wind  
Wind Speed 3 mph ()    
Max Wind Speed 7 mph    
Max Gust Speed -    
Averages and records for this station are not official NWS values.
T = Trace of Precipitation, MM = Missing Value Source: Averaged Metar Reports

Daily Weather History Graph

Daily Weather History Graph

Search for Another Location

Airport or City:

Trip Planner

Search our weather history database for the weather conditions in past years. The results will help you decide how hot, cold, wet, or windy it might be!

Date:

Astronomy

Aug. 17, 2013 Rise Set
Actual Time 5:40 AM CEST 7:48 PM CEST
Civil Twilight 5:07 AM CEST 8:21 PM CEST
Nautical Twilight 4:26 AM CEST 9:02 PM CEST
Astronomical Twilight 3:40 AM CEST 9:47 PM CEST
Moon 4:54 PM CEST (8/17) 1:17 AM CEST (8/17)
Length of Visible Light 15h 13m
Length of Day
14h 07m
Waxing Gibbous, 82% of the Moon is Illuminated
Aug 17
Waxing Gibbous
Aug 21
Full
Aug 28
Last Quarter
Sep 5
New
Sep 12
First Quarter

Hourly Weather History & Observations

Time (CEST) Temp. Dew Point Humidity Pressure Visibility Wind Dir Wind Speed Gust Speed Precip Events Conditions
12:15 AM 57.2 °F 44.6 °F 63% 30.12 in - Variable 4.5 mph - N/A   Clear
12:45 AM 55.4 °F 44.6 °F 67% 30.12 in - Variable 4.5 mph - N/A   Clear
1:15 AM 55.4 °F 44.6 °F 67% 30.12 in - Variable 4.5 mph - N/A   Clear
1:45 AM 55.4 °F 46.4 °F 72% 30.12 in - NW 2.2 mph - N/A   Clear
2:15 AM 55.4 °F 46.4 °F 72% 30.12 in - NW 2.2 mph - N/A   Clear
2:45 AM 53.6 °F 44.6 °F 72% 30.09 in - Calm Calm - N/A   Clear
3:15 AM 53.6 °F 46.4 °F 77% 30.09 in - WNW 2.2 mph - N/A   Clear
3:45 AM 51.8 °F 46.4 °F 82% 30.09 in - Calm Calm - N/A   Clear
4:15 AM 51.8 °F 44.6 °F 76% 30.09 in - Calm Calm - N/A   Clear
4:45 AM 51.8 °F 44.6 °F 76% 30.09 in - Calm Calm - N/A   Clear
5:15 AM 51.8 °F 42.8 °F 71% 30.09 in - Variable 2.2 mph - N/A   Clear
5:45 AM 51.8 °F 42.8 °F 71% 30.09 in - NNE 2.2 mph - N/A   Clear
6:15 AM 51.8 °F 44.6 °F 76% 30.09 in - Calm Calm - N/A   Clear
6:45 AM 53.6 °F 46.4 °F 77% 30.12 in - Calm Calm - N/A   Clear
7:15 AM 57.2 °F 46.4 °F 67% 30.12 in - NW 2.2 mph - N/A   Clear
7:45 AM 62.6 °F 46.4 °F 55% 30.12 in - Calm Calm - N/A   Clear
8:15 AM 66.2 °F 46.4 °F 49% 30.12 in - East 4.5 mph - N/A   Clear
8:45 AM 69.8 °F 46.4 °F 43% 30.12 in - SSE 6.7 mph - N/A   Clear
9:15 AM 73.4 °F 46.4 °F 38% 30.12 in - SE 4.5 mph - N/A   Clear
9:45 AM 75.2 °F 44.6 °F 34% 30.12 in - ESE 2.2 mph - N/A   Clear
10:15 AM 77.0 °F 44.6 °F 32% 30.12 in - SE 4.5 mph - N/A   Clear
10:45 AM 78.8 °F 42.8 °F 28% 30.12 in - Variable 2.2 mph - N/A   Clear
11:15 AM 80.6 °F 42.8 °F 26% 30.09 in - West 2.2 mph - N/A   Clear
11:45 AM 80.6 °F 42.8 °F 26% 30.09 in - Variable 4.5 mph - N/A   Clear
12:15 PM 82.4 °F 42.8 °F 25% 30.09 in - Variable 4.5 mph - N/A   Clear
12:45 PM 82.4 °F 39.2 °F 21% 30.09 in - Variable 2.2 mph - N/A   Clear
1:15 PM 82.4 °F 42.8 °F 25% 30.06 in - West 6.7 mph - N/A   Clear
1:45 PM 82.4 °F 41.0 °F 23% 30.06 in - North 6.7 mph - N/A   Clear
2:15 PM 82.4 °F 39.2 °F 21% 30.06 in - West 4.5 mph - N/A   Clear
2:45 PM 84.2 °F 41.0 °F 22% 30.06 in - NNW 2.2 mph - N/A   Clear
3:15 PM 84.2 °F 42.8 °F 23% 30.04 in - WNW 6.7 mph - N/A   Clear
3:45 PM 84.2 °F 41.0 °F 22% 30.04 in - NW 4.5 mph - N/A   Clear
4:15 PM 84.2 °F 41.0 °F 22% 30.04 in - WNW 4.5 mph - N/A   Clear
4:45 PM 84.2 °F 41.0 °F 22% 30.04 in - West 2.2 mph - N/A   Clear
5:15 PM 86.0 °F 41.0 °F 20% 30.04 in - North 2.2 mph - N/A   Clear
5:45 PM 84.2 °F 41.0 °F 22% 30.01 in - WNW 2.2 mph - N/A   Clear
6:15 PM 84.2 °F 39.2 °F 20% 30.01 in - NNW 4.5 mph - N/A   Clear
6:45 PM 82.4 °F 42.8 °F 25% 30.01 in - NNE 4.5 mph - N/A   Clear
7:15 PM 78.8 °F 46.4 °F 32% 30.04 in - NNE 2.2 mph - N/A   Clear
7:45 PM 78.8 °F 46.4 °F 32% 30.04 in - NNE 2.2 mph - N/A   Clear
8:15 PM 69.8 °F 46.4 °F 43% 30.04 in - NNE 2.2 mph - N/A   Clear
8:45 PM 69.8 °F 44.6 °F 40% 30.04 in - NNE 2.2 mph - N/A   Clear
9:15 PM 66.2 °F 46.4 °F 49% 30.04 in - NNW 2.2 mph - N/A   Clear
9:45 PM 66.2 °F 46.4 °F 49% 30.06 in - WNW 2.2 mph - N/A   Clear
10:15 PM 64.4 °F 46.4 °F 52% 30.06 in - WNW 4.5 mph - N/A   Clear
10:45 PM 62.6 °F 48.2 °F 59% 30.06 in - WNW 4.5 mph - N/A   Clear
11:15 PM 62.6 °F 48.2 °F 59% 30.06 in - WNW 2.2 mph - N/A   Clear
11:45 PM 62.6 °F 48.2 °F 59% 30.06 in - South 2.2 mph - N/A   Clear